Date String (YYYY-MM-DD hh:mm:ss) UTC,Instrument flags,absolute air pressure of the measurement (hPa),sample flow rate (lpm),inlet stack bypass flow (lpm),air temperature of the measurement (°C),ambient temperature measured by the external sensor (°C),aerosol sample conditioner tube jacket temperature (°C),OPC LED temperature (°C),internal box temperature (°C),relative humidity of the measurement (%),span deviation,mass concentration of particles derived from Lorenz-Mie calculation of OPC scattering (μg/m³),mass concentration of particles derived from Lorenz-Mie calculation of OPC scattering (μg/m³),mass concentration of particles derived from Lorenz-Mie calculation of OPC scattering (μg/m³)
DateTimeUTC,F1_M11,P_M11,Q1_M11,Q2_M11,T1_M11,T2_M11,T3_M11,T4_M11,T5_M11,U1_M11,ZSPAN_M11,X0_M11,X2_M11,X1_M11
2023-11-30 21:00:00,SystemResetWarning,0821.7,5.00,000.00,021.7,020.9,000.0,029.8,023.1,10.8,0000.0,0009.56,0005.20,0004.75
2023-11-30 21:01:00,SystemResetWarning,0821.8,4.99,000.00,021.7,020.9,000.0,029.8,023.1,10.9,0000.0,0009.65,0005.18,0004.74
2023-11-30 21:02:00,SystemResetWarning,0821.7,5.00,000.00,021.7,020.9,000.0,029.8,023.1,10.8,0000.0,0009.69,0005.15,0004.71
2023-11-30 21:03:00,SystemResetWarning,0821.7,4.99,000.00,021.7,021.0,000.0,029.8,023.1,10.8,0000.0,0009.53,0005.12,0004.68
2023-11-30 21:04:00,SystemResetWarning,0821.8,5.00,000.00,021.7,021.0,000.0,029.9,023.1,10.8,0000.0,0009.10,0005.10,0004.65
2023-11-30 21:05:00,SystemResetWarning,0821.7,5.00,000.00,021.7,021.0,000.0,029.9,023.1,10.9,0000.0,0009.08,0005.08,0004.61
2023-11-30 21:06:00,SystemResetWarning,0821.8,5.00,000.00,021.7,021.0,000.0,029.9,023.1,10.7,0000.0,0008.88,0005.00,0004.57
2023-11-30 21:07:00,SystemResetWarning,0821.7,5.01,000.00,021.8,021.0,000.0,029.9,023.1,10.7,0000.0,0009.21,0004.96,0004.53
2023-11-30 21:08:00,SystemResetWarning,0821.8,5.00,000.00,021.8,021.0,000.0,029.9,023.1,10.5,0000.0,0009.34,0004.94,0004.51
2023-11-30 21:09:00,SystemResetWarning,0821.7,5.00,000.00,021.8,021.0,000.0,029.9,023.2,10.5,0000.0,0009.34,0004.91,0004.49
2023-11-30 21:10:00,SystemResetWarning,0821.7,5.00,000.00,021.8,021.0,000.0,030.0,023.2,10.5,0000.0,0008.75,0004.86,0004.46
2023-11-30 21:11:00,SystemResetWarning,0821.7,5.00,000.00,021.8,021.0,000.0,030.0,023.2,10.6,0000.0,0008.67,0004.82,0004.43
2023-11-30 21:12:00,SystemResetWarning,0821.7,5.00,000.00,021.8,021.0,000.0,030.0,023.2,10.9,0000.0,0008.57,0004.77,0004.40
2023-11-30 21:13:00,SystemResetWarning,0821.7,5.00,000.00,021.8,021.1,000.0,030.0,023.2,10.8,0000.0,0008.47,0004.75,0004.38
2023-11-30 21:14:00,SystemResetWarning,0821.7,4.99,000.00,021.8,021.1,000.0,030.0,023.3,10.8,0000.0,0008.43,0004.71,0004.34
2023-11-30 21:15:00,SystemResetWarning,0821.6,5.00,000.00,021.9,021.1,000.0,030.0,023.3,10.9,0000.0,0008.27,0004.65,0004.31
2023-11-30 21:16:00,SystemResetWarning,0821.6,5.00,000.00,021.9,021.1,000.0,030.0,023.3,10.8,0000.0,0008.18,0004.60,0004.29
2023-11-30 21:17:00,SystemResetWarning,0821.6,5.00,000.00,021.9,021.1,000.0,030.0,023.3,10.9,0000.0,0008.25,0004.60,0004.28
2023-11-30 21:18:00,SystemResetWarning,0821.6,5.00,000.00,021.9,021.2,000.0,030.0,023.3,10.6,0000.0,0008.00,0004.59,0004.27
2023-11-30 21:19:00,SystemResetWarning,0821.6,5.00,000.00,021.9,021.2,000.0,030.1,023.3,10.7,0000.0,0007.82,0004.60,0004.26
2023-11-30 21:20:00,SystemResetWarning,0821.6,5.00,000.00,021.9,021.2,000.0,030.1,023.4,10.7,0000.0,0007.73,0004.58,0004.25
2023-11-30 21:21:00,SystemResetWarning,0821.6,5.01,000.00,022.0,021.3,000.0,030.1,023.4,10.6,0000.0,0007.54,0004.58,0004.24
2023-11-30 21:22:00,SystemResetWarning,0821.6,5.01,000.00,022.0,021.3,000.0,030.1,023.5,10.4,0000.0,0007.48,0004.57,0004.24
2023-11-30 21:23:00,SystemResetWarning,0821.6,4.99,000.00,022.0,021.3,000.0,030.1,023.5,10.3,0000.0,0007.86,0004.60,0004.24
2023-11-30 21:24:00,SystemResetWarning,0821.7,4.99,000.00,022.0,021.4,000.0,030.1,023.6,10.4,0000.0,0007.88,0004.60,0004.23
2023-11-30 21:25:00,SystemResetWarning,0821.7,5.00,000.00,022.1,021.4,000.0,030.2,023.6,10.3,0000.0,0007.89,0004.61,0004.24
2023-11-30 21:26:00,SystemResetWarning,0821.7,5.01,000.00,022.1,021.5,000.0,030.2,023.6,10.5,0000.0,0007.96,0004.63,0004.24
2023-11-30 21:27:00,SystemResetWarning,0821.7,5.00,000.00,022.1,021.5,000.0,030.2,023.6,10.6,0000.0,0007.99,0004.65,0004.25
2023-11-30 21:28:00,SystemResetWarning,0821.7,5.01,000.00,022.1,021.5,000.0,030.2,023.6,10.7,0000.0,0007.92,0004.64,0004.25
2023-11-30 21:29:00,SystemResetWarning,0821.7,5.00,000.00,022.2,021.5,000.0,030.2,023.6,10.8,0000.0,0007.87,0004.62,0004.25
2023-11-30 21:30:00,SystemResetWarning,0821.7,5.00,000.00,022.2,021.6,000.0,030.3,023.7,10.9,0000.0,0007.77,0004.59,0004.25
2023-11-30 21:31:00,SystemResetWarning,0821.7,4.99,000.00,022.2,021.6,000.0,030.3,023.8,10.9,0000.0,0008.11,0004.60,0004.23
2023-11-30 21:32:00,SystemResetWarning,0821.7,4.99,000.00,022.3,021.7,000.0,030.3,023.8,10.9,0000.0,0008.23,0004.60,0004.23
2023-11-30 21:33:00,SystemResetWarning,0821.7,5.00,000.00,022.3,021.7,000.0,030.3,023.8,10.7,0000.0,0008.26,0004.62,0004.25
2023-11-30 21:34:00,SystemResetWarning,0821.7,5.01,000.00,022.3,021.7,000.0,030.4,023.8,10.7,0000.0,0008.03,0004.63,0004.28
2023-11-30 21:35:00,SystemResetWarning,0821.7,5.01,000.00,022.3,021.8,000.0,030.4,023.9,10.6,0000.0,0007.92,0004.66,0004.31
2023-11-30 21:36:00,SystemResetWarning,0821.7,5.00,000.00,022.4,021.8,000.0,030.4,023.9,10.8,0000.0,0008.10,0004.69,0004.34
2023-11-30 21:37:00,SystemResetWarning,0821.7,5.00,000.00,022.4,021.8,000.0,030.4,023.9,10.7,0000.0,0008.15,0004.72,0004.37
2023-11-30 21:38:00,SystemResetWarning,0821.7,4.99,000.00,022.4,021.9,000.0,030.5,024.0,10.7,0000.0,0008.19,0004.76,0004.38
2023-11-30 21:39:00,SystemResetWarning,0821.7,4.99,000.00,022.5,021.9,000.0,030.5,024.0,10.4,0000.0,0008.23,0004.79,0004.40
2023-11-30 21:40:00,SystemResetWarning,0821.7,4.99,000.00,022.5,021.9,000.0,030.5,024.0,10.3,0000.0,0008.32,0004.82,0004.41
2023-11-30 21:41:00,SystemResetWarning,0821.7,5.00,000.00,022.5,022.0,000.0,030.5,024.0,10.3,0000.0,0008.49,0004.87,0004.43
2023-11-30 21:42:00,SystemResetWarning,0821.7,5.00,000.00,022.5,022.0,000.0,030.6,024.1,10.1,0000.0,0008.52,0004.90,0004.45
2023-11-30 21:43:00,SystemResetWarning,0821.8,5.01,000.00,022.6,022.0,000.0,030.6,024.1,10.3,0000.0,0008.15,0004.93,0004.51
2023-11-30 21:44:00,SystemResetWarning,0821.8,5.00,000.00,022.6,022.0,000.0,030.6,024.1,10.5,0000.0,0008.25,0004.99,0004.54
2023-11-30 21:45:00,SystemResetWarning,0821.8,5.01,000.00,022.6,022.1,000.0,030.6,024.1,10.3,0000.0,0008.29,0005.00,0004.55
2023-11-30 21:46:00,SystemResetWarning,0821.8,4.99,000.00,022.6,022.1,000.0,030.7,024.2,10.3,0000.0,0008.30,0004.99,0004.53
2023-11-30 21:47:00,SystemResetWarning,0821.8,5.00,000.00,022.7,022.1,000.0,030.7,024.2,10.2,0000.0,0008.30,0004.98,0004.52
2023-11-30 21:48:00,SystemResetWarning,0821.8,5.00,000.00,022.7,022.1,000.0,030.7,024.2,10.0,0000.0,0008.22,0004.96,0004.51
2023-11-30 21:49:00,SystemResetWarning,0821.8,5.00,000.00,022.7,022.1,000.0,030.7,024.2,10.1,0000.0,0008.52,0004.97,0004.50
2023-11-30 21:50:00,SystemResetWarning,0821.8,5.01,000.00,022.8,022.2,000.0,030.8,024.3,10.2,0000.0,0008.94,0004.99,0004.51
2023-11-30 21:51:00,SystemResetWarning,0821.7,5.01,000.00,022.8,022.2,000.0,030.8,024.3,10.3,0000.0,0008.91,0004.99,0004.52
2023-11-30 21:52:00,SystemResetWarning,0821.8,5.01,000.00,022.8,022.2,000.0,030.8,024.3,10.5,0000.0,0009.00,0005.02,0004.53
2023-11-30 21:53:00,SystemResetWarning,0821.8,5.00,000.00,022.8,022.2,000.0,030.8,024.3,10.6,0000.0,0009.66,0005.00,0004.52
2023-11-30 21:54:00,SystemResetWarning,0821.8,4.99,000.00,022.8,022.3,000.0,030.9,024.4,10.7,0000.0,0009.78,0004.96,0004.50
2023-11-30 21:55:00,SystemResetWarning,0821.8,5.00,000.00,022.9,022.3,000.0,030.9,024.4,10.7,0000.0,0009.92,0004.91,0004.46
2023-11-30 21:56:00,SystemResetWarning,0821.8,5.00,000.00,022.9,022.3,000.0,030.9,024.4,10.6,0000.0,0010.64,0004.89,0004.46
2023-11-30 21:57:00,SystemResetWarning,0821.8,4.99,000.00,022.9,022.3,000.0,030.9,024.5,10.5,0000.0,0010.65,0004.90,0004.47
2023-11-30 21:58:00,SystemResetWarning,0821.8,5.00,000.00,023.0,022.4,000.0,031.0,024.5,10.5,0000.0,0010.82,0004.92,0004.47
2023-11-30 21:59:00,SystemResetWarning,0821.8,5.00,000.00,023.0,022.4,000.0,031.0,024.5,10.6,0000.0,0010.85,0004.96,0004.49
